Chicopee, MA

4:59 AM EDT on October 23, 2019 (GMT -0400)
Westover Air Reserve Base / Metropolitan Airport

Weather History for KCEF - September, 2019

Change the Weather History Date:

Monday, September 16, 2019

  Actual Average Record
Temperature  
Mean Temperature 62 °F -  
Max Temperature 74 °F 72 °F 85 °F (2018)
Min Temperature 50 °F 50 °F 35 °F (2010)
Degree Days  
Heating Degree Days 3    
Growing Degree Days 12 (Base 50)    
Moisture  
Dew Point 52 °F    
Average Humidity 75    
Maximum Humidity 100    
Minimum Humidity 42    
Precipitation  
Precipitation 0.00 in - - ()
Sea Level Pressure  
Sea Level Pressure 30.06 in    
Wind  
Wind Speed 3 mph ()    
Max Wind Speed 10 mph    
Max Gust Speed -    
Visibility 10.0 miles    
Events Fog    
Averages and records for this station are not official NWS values.
T = Trace of Precipitation, MM = Missing Value Source: Averaged Metar Reports

Daily Weather History Graph

Daily Weather History Graph

Search for Another Location

Airport or City:

Astronomy

Sep. 16, 2019 Rise Set
Actual Time 6:30 AM EDT 6:58 PM EDT
Civil Twilight 6:02 AM EDT 7:26 PM EDT
Nautical Twilight 5:29 AM EDT 7:59 PM EDT
Astronomical Twilight 4:55 AM EDT 8:33 PM EDT
Moon 8:29 PM EDT (9/16) 8:36 AM EDT (9/16)
Length of Visible Light 13h 23m
Length of Day
12h 27m
Waning Gibbous, 94% of the Moon is Illuminated
Sep 16
Waning Gibbous
Sep 21
Last Quarter
Sep 28
New
Oct 5
First Quarter
Oct 13
Full

Hourly Weather History & Observations

Time (EDT) Temp. Dew Point Humidity Pressure Visibility Wind Dir Wind Speed Gust Speed Precip Events Conditions
12:56 AM 56.3 °F 55.9 °F 99% 30.06 in 10.0 mi SSE 4.6 mph - N/A   Clear
1:56 AM 56.5 °F 56.1 °F 99% 30.07 in 10.0 mi Calm Calm - N/A   Scattered Clouds
2:56 AM 57.0 °F 56.7 °F 99% 30.06 in 10.0 mi Calm Calm - N/A   Mostly Cloudy
3:56 AM 57.0 °F 56.7 °F 99% 30.06 in 10.0 mi Calm Calm - N/A   Mostly Cloudy
4:56 AM 56.3 °F 55.9 °F 99% 30.07 in 10.0 mi Calm Calm - N/A   Scattered Clouds
5:56 AM 55.0 °F 54.7 °F 99% 30.08 in 10.0 mi North 3.5 mph - N/A   Mostly Cloudy
6:56 AM 54.5 °F 54.1 °F 99% 30.09 in 10.0 mi NNE 3.5 mph - N/A Fog Shallow Fog
7:56 AM 57.9 °F 57.9 °F 100% 30.10 in 10.0 mi Calm Calm - N/A   Scattered Clouds
8:56 AM 62.2 °F 54.9 °F 77% 30.10 in 10.0 mi North 5.8 mph - N/A   Scattered Clouds
9:56 AM 65.3 °F 52.9 °F 64% 30.10 in 10.0 mi North 9.2 mph - N/A   Mostly Cloudy
10:56 AM 67.1 °F 50.9 °F 56% 30.09 in 10.0 mi North 10.4 mph - N/A   Scattered Clouds
11:56 AM 67.6 °F 49.8 °F 53% 30.08 in 10.0 mi North 6.9 mph - N/A   Scattered Clouds
12:56 PM 69.6 °F 50.2 °F 50% 30.06 in 10.0 mi NE 4.6 mph - N/A   Partly Cloudy
1:56 PM 71.1 °F 49.3 °F 46% 30.04 in 10.0 mi Calm Calm - N/A   Scattered Clouds
2:56 PM 72.1 °F 50.2 °F 46% 30.02 in 10.0 mi NE 4.6 mph - N/A   Partly Cloudy
3:56 PM 74.3 °F 50.4 °F 43% 30.01 in 10.0 mi North 8.1 mph - N/A   Partly Cloudy
4:56 PM 73.6 °F 49.1 °F 42% 30.01 in 10.0 mi North 8.1 mph - N/A   Partly Cloudy
5:56 PM 71.4 °F 47.7 °F 43% 30.02 in 10.0 mi NW 6.9 mph - N/A   Partly Cloudy
6:56 PM 66.6 °F 47.8 °F 51% 30.04 in 10.0 mi NNW 8.1 mph - N/A   Partly Cloudy
7:56 PM 58.3 °F 50.0 °F 74% 30.05 in 10.0 mi NE 4.6 mph - N/A   Clear
8:56 PM 55.0 °F 50.9 °F 86% 30.07 in 10.0 mi Calm Calm - N/A   Clear
9:56 PM 52.0 °F 50.4 °F 94% 30.08 in 10.0 mi NE 5.8 mph - N/A   Clear
10:56 PM 50.5 °F 48.9 °F 94% 30.09 in 10.0 mi NNE 3.5 mph - N/A   Clear
11:56 PM 50.0 °F 48.6 °F 95% 30.11 in 10.0 mi North 3.5 mph - N/A   Clear